User: anonymous   Login
Location: Unspecified
(0.0000°N, 0.0000°E)
Time: 13:45:37
(UTC+02:00)
Language:

Coronas F rocket - Orbit

View from above orbital plane
View from above orbital plane
View from above satellite
View from above satellite

Ground track
Ground track

The orbit data is extracted from the following two-line orbital elements,

1 26874U 01032B   16178.23682249  .00017748  00000-0  88718-4 0  9995
2 26874  82.4605 271.9516 0007784 158.8780 201.2811 15.81597378837072
Epoch (UTC): 26 June 2016 05:41:01
Eccentricity: 0.0007784
inclination: 82.4605°
perigee height: 321 km
apogee height: 331 km
right ascension of ascending node: 271.9516°
argument of perigee: 158.8780°
revolutions per day: 15.81597378
mean anomaly at epoch: 201.2811°
orbit number at epoch: 83707

The dashed part of the orbit path shows where the satellite is in the earth's shadow,  

DLR